Regional Weather Roundup
Issued by NWS

Home | Current Version | Previous Version | Text Only | Print | Product List | Glossary Off
Versions: 1 2 3 4 5 6 7 8 9 10 11 12 13 14 15 16 17 18 19 20 21 22 23 24 25 26 27 28 29 30 31 32 33 34 35 36 37 38 39 40 41 42 43 44 45 46 47 48 49 50

000
ASUS45 KBOU 010810
RWRCO

WEATHER ROUNDUP FOR COLORADO
NATIONAL WEATHER SERVICE DENVER/BOULDER CO
200 AM MDT WED JUL 01 2015

NOTE: "FAIR" INDICATES FEW OR NO CLOUDS BELOW 12000 FEET WITH NO
SIGNIFICANT WEATHER AND/OR OBSTRUCTIONS TO VISIBILITY.

COZ001>005-013-030-031-010900-
...NORTHWEST COLORADO...

CITY           SKY/WX    TMP DP  RH WIND       PRES   REMARKS
CRAIG          CLOUDY    56  48  74 CALM      30.21S
HAYDEN         MOCLDY    63  46  55 E7        30.23F
MEEKER         MOCLDY    58  47  66 NE6       30.23R
MOUNT WERNER   NOT AVBL
STEAMBOAT SPGS MOCLDY    57  49  73 E3        30.26F
WALDEN         MOCLDY    52  50  93 SE6       30.37S
$$

COZ006>008-011-010900-
...WEST CENTRAL VALLEYS...

CITY           SKY/WX    TMP DP  RH WIND       PRES   REMARKS
GRAND JUNCTION PTCLDY    72  49  44 CALM      30.05R
MONTROSE       PTCLDY    70  46  42 SE6       30.16S
EAGLE          CLEAR     61  52  72 E6        30.28R
RIFLE          PTCLDY    67  43  41 S5        30.14R
DELTA          PTCLDY    74  43  33 E3        30.11S
NUCLA          PTCLDY    70  45  40 MISG      30.19S
$$

COZ017>023-064>068-010900-
...SOUTHWEST COLORADO...

CITY           SKY/WX    TMP DP  RH WIND       PRES   REMARKS
DURANGO        CLOUDY    73  47  39 E8        30.22R
CORTEZ         CLEAR     64  48  56 NE5       30.12S
PAGOSA SPRINGS CLOUDY    60  54  78 NE6       30.33
TELLURIDE      CLOUDY    62  41  45 E3        30.44F
WOLF CREEK PAS NOT AVBL
$$

COZ009-010-012-014-032>034-037-058>063-010900-
...CENTRAL COLORADO...

CITY           SKY/WX    TMP DP  RH WIND       PRES   REMARKS
ASPEN          PTCLDY    58  45  62 S7        30.33S
BUENA VISTA    MOCLDY    59  52  75 CALM      30.37F
COPPER MTN     PTCLDY    55  36  47 S9        30.68S
BERTHOUD PASS  FAIR      45  36  70 NW13G25   30.71R
COTTONWOOD PAS NOT AVBL
GUNNISON       MOCLDY    66  45  45 N7        30.36S
KREMMLING      PTCLDY    57  46  67 CALM      30.34S
LEADVILLE      PTCLDY    46  37  71 E6        30.51S
MONARCH PASS   MOCLDY    50  41  71 E14       30.77F
SALIDA         MOCLDY    58  53  86 W3        30.41F
SUNLIGHT       PTCLDY    59  41  51 CALM      30.60S
WILKERSON PASS MOCLDY    52  37  58 W5        30.64F
$$

COZ069>075-010900-
...SAN LUIS VALLEY/SANGRE DE CRISTO MOUNTAINS...

CITY           SKY/WX    TMP DP  RH WIND       PRES   REMARKS
ALAMOSA        CLOUDY    62  52  69 SE6       30.32S
LA VETA PASS   CLOUDY    57  43  58 MISG      30.54S THUNDER
SAGUACHE       CLOUDY    61  48  63 N10       30.35S
$$

COZ035-036-038>040-010900-
...NORTHERN COLORADO FRONT RANGE...

CITY           SKY/WX    TMP DP  RH WIND       PRES   REMARKS
DENVER INTL AP CLOUDY    68  54  60 W7        30.11F
DMNS CITY PARK   N/A     67  56  67 SE1       30.12F
AURORA         MOCLDY    66  55  67 SW8       30.14F
FRONT RANGE AP CLOUDY    70  57  64 SW9       30.12F
ERIE MUNI ARPT CLOUDY    63  59  86 S5        30.11F
BOULDER MUN AP CLOUDY    68  55  64 W5        30.12F
CENTENNIAL     CLOUDY    68  54  60 NW3       30.16F
BROOMFIELD     CLOUDY    64  55  72 W7        30.15F
FORT COLLINS   MOCLDY    66  55  68 N7        30.10F
LONGMONT       MOCLDY    67  56  67 W8        30.12S
$$

COZ041-046-047-076>085-087-088-010900-
...PIKES PEAK/PALMER DIVIDE AND SOUTHERN FOOTHILLS...

CITY           SKY/WX    TMP DP  RH WIND       PRES   REMARKS
COLO. SPRINGS  MOCLDY    71  50  47 NW7       30.19F
A. F. ACADEMY  MOCLDY    65  50  57 NW3       30.20F
ELLICOTT       MOCLDY   N/A N/A N/A NE13      30.16F
FALCON         MOCLDY    64  49  58 N7        30.25S
FORT CARSON    MOCLDY    69  53  57 NW7       30.14F
LIMON          MOCLDY    66  54  65 W5        30.09F
MONUMENT HILL  MOCLDY    59  52  77 S5        30.25F
TRINIDAD       CLOUDY    76  47  35 W15       30.15F
$$

COZ042>045-048>051-090-091-010900-
...NORTHEAST COLORADO...

CITY           SKY/WX    TMP DP  RH WIND       PRES   REMARKS
GREELEY ARPT   CLOUDY    68  55  64 NW8       30.07F
AKRON          CLOUDY    71  53  52 NW13      30.00F
BURLINGTON     CLOUDY    74  54  49 NW9       29.99F
WRAY           CLOUDY    76  56  49 N6        29.92F
STERLING       CLOUDY    68  57  68 NW8         N/A
HOLYOKE        CLOUDY    79  54  41 NW9G21    29.91F
FORT MORGAN    CLOUDY    64  55  71 NW5       30.03S
$$

COZ086-089-092>099-010900-
...SOUTHEAST COLORADO...

CITY           SKY/WX    TMP DP  RH WIND       PRES   REMARKS
PUEBLO         CLOUDY    77  52  41 E5        30.07R
LA JUNTA       CLOUDY    78  51  38 N12       30.03R
LAMAR          MOCLDY    77  51  40 W9G18     29.96R
SPRINGFIELD      N/A     72  49  44 SW13G21   30.03F
$$



USA.gov is the U.S. government's official web portal to all federal, state and local government web resources and services.